Location: W�rzburg
(49.7529°N, 9.8822°E)
Time: 00:34:17
(UTC+02:00)

ISS - Visible Passes

Search period start: 22 October 2019 00:00
Search period end: 31 October 2019 23:00
Orbit: 411 x 421 km, 51.6° (Epoch: 21 October)

Date Brightness Start Highest point End Pass type
(mag) Time Alt. Az. Time Alt. Az. Time Alt. Az.
24 Oct -0.7 06:50:23 10° SSE 06:51:59 13° SE 06:53:36 10° ESE visible
26 Oct -1.7 06:48:15 10° SSW 06:51:08 27° SE 06:54:02 10° E visible
27 Oct -1.2 05:00:46 12° S 05:02:41 18° SE 05:05:05 10° E visible
28 Oct -0.7 04:14:37 12° SE 04:14:37 12° SE 04:15:39 10° ESE visible
28 Oct -3.1 05:47:32 13° SW 05:50:26 53° SSE 05:53:43 10° ENE visible
29 Oct -2.6 05:01:15 33° S 05:01:52 37° SSE 05:05:00 10° E visible
30 Oct -1.0 04:14:49 18° ESE 04:14:49 18° ESE 04:16:10 10° E visible
30 Oct -3.8 05:47:44 22° WSW 05:49:47 89° NW 05:53:11 10° ENE visible
31 Oct -3.6 05:01:13 70° SE 05:01:13 70° SE 05:04:30 10° ENE visible
